Flag for U.S.A. Weather past 2 weeks in Owensboro, Kentucky, U.S.A.

Now
83 °F

Passing clouds.


Feels Like: 85 °F
Forecast: 63 / 82 °F
Wind: 12 mph from Southwest

Location: Owensboro / Daviess

Current Time: Oct 2, 2014 at 12:08:16 PM

Latest Report: Oct 2, 2014 at 10:56 AM


Visibility: 10 mi

Pressure: 29.96 "Hg

Humidity: 55%

Dew point: 65 °F

Location of OwensboroLocation

Historic Weather in Owensboro — Graph

°F

Owensboro temperature yesterday

Maximum temperature yesterday: 88 °F (at 2:56 PM)
Minimum temperature yesterday: 61 °F (at 6:56 AM)
Average temperature yesterday: 73 °F

Past Weeks' High & Low Weather Summary

 TemperatureHumidityPressure
High88 °F (Oct 1, 2:56 PM)100% (Sep 29, 6:56 AM)30.33 "Hg (Sep 29, 6:56 AM)
Low46 °F (Sep 23, 5:56 AM)29% (Sep 29, 2:56 PM)29.87 "Hg (Sep 30, 4:56 PM)
Average69 °F67%30.08 "Hg
* Reported Sep 17 10:56 AM — Oct 2 10:56 AM, Owensboro, Weather by CustomWeather, © 2014

Note: Actual official high and low records may vary slightly from our data, if they occured in-between our weather recording intervals... More about our weather records

Advertising

Owensboro weather history for previous 24 hours

 ConditionsComfort  
Time TempWeatherWind HumidityBarometerVisibility
10:56 AM
Oct 2
83 °FPassing clouds.12 mph55%29.96 "Hg10 mi
9:56 AM79 °FPassing clouds.14 mph56%29.96 "Hg10 mi
8:56 AM73 °FScattered clouds.13 mph64%29.97 "Hg10 mi
7:56 AM69 °FPartly sunny.7 mph71%29.98 "Hg10 mi
6:56 AM67 °FPassing clouds.6 mph73%29.97 "Hg10 mi
5:56 AM66 °FPassing clouds.7 mph73%29.95 "Hg10 mi
4:56 AM65 °FPassing clouds.7 mph73%29.93 "Hg10 mi
3:56 AM65 °FClear.7 mph73%29.93 "Hg10 mi
2:56 AM66 °FClear.5 mph71%29.92 "Hg10 mi
1:56 AM66 °FClear.No wind73%29.93 "Hg10 mi
12:56 AM67 °FClear.3 mph68%29.93 "Hg10 mi
11:56 PM
Oct 1
68 °FClear.7 mph65%29.93 "Hg10 mi
10:56 PM70 °FClear.7 mph63%29.94 "Hg10 mi
9:56 PM70 °FClear.5 mph63%29.94 "Hg10 mi
8:56 PM72 °FClear.6 mph61%29.93 "Hg10 mi
7:56 PM74 °FClear.5 mph55%29.92 "Hg10 mi
6:56 PM78 °FSunny.6 mph47%29.90 "Hg10 mi
5:56 PM84 °FPassing clouds.7 mph39%29.90 "Hg10 mi
4:56 PM87 °FSunny.No wind35%29.88 "Hg10 mi
3:56 PM87 °FScattered clouds.7 mph35%29.89 "Hg10 mi
2:56 PM88 °FScattered clouds.8 mph32%29.90 "Hg10 mi
1:56 PM86 °FScattered clouds.5 mph33%29.92 "Hg10 mi
12:56 PM85 °FPassing clouds.6 mph36%29.94 "Hg10 mi
Weather by CustomWeather, © 2014

See weather overviewHow to use our weather pages